timestamp,wind_dir_avg,wind_spd_avg,wind_spd_max_dir,wind_spd_gust,battery_voltage,lat,long
2022-01-15 00:04:00+00:00,163.0,15.96,167.0,18.8,12.25,47.59359,-54.27349
2022-01-15 00:14:00+00:00,165.0,15.43,168.0,18.9,12.25,47.59359,-54.27349
2022-01-15 00:24:00+00:00,162.0,14.13,163.0,18.67,12.25,47.59359,-54.27349
2022-01-15 00:34:00+00:00,163.0,14.69,165.0,19.26,12.25,47.59359,-54.27349
2022-01-15 00:44:00+00:00,162.0,13.95,166.0,17.09,12.25,47.59359,-54.27349
2022-01-15 00:54:00+00:00,160.0,13.31,166.0,15.67,12.25,47.59359,-54.27349
2022-01-15 01:04:00+00:00,162.0,15.12,160.0,17.2,12.25,47.59359,-54.27349
2022-01-15 01:14:01+00:00,163.0,14.22,161.0,16.01,12.25,47.59359,-54.27349
2022-01-15 01:24:01+00:00,163.0,15.29,165.0,18.94,12.25,47.59359,-54.27349
2022-01-15 01:34:01+00:00,160.0,14.73,160.0,16.62,12.25,47.59359,-54.27349
2022-01-15 01:44:01+00:00,162.0,15.63,163.0,16.98,12.25,47.59359,-54.27349
2022-01-15 01:54:01+00:00,160.0,14.15,161.0,17.85,12.25,47.59359,-54.27349
2022-01-15 02:04:01+00:00,159.0,13.54,163.0,16.58,12.25,47.59359,-54.27349
2022-01-15 02:14:01+00:00,162.0,17.05,163.0,20.79,12.25,47.59359,-54.27349
2022-01-15 02:24:01+00:00,161.0,17.82,145.0,22.04,12.25,47.59359,-54.27349
2022-01-15 02:34:01+00:00,160.0,15.76,163.0,18.49,12.25,47.59359,-54.27349
2022-01-15 02:44:01+00:00,159.0,13.81,157.0,16.05,12.25,47.59359,-54.27349
2022-01-15 02:54:01+00:00,162.0,16.36,165.0,18.34,12.25,47.59359,-54.27349
2022-01-15 03:04:01+00:00,161.0,15.52,163.0,18.8,12.25,47.59359,-54.27349
2022-01-15 03:14:01+00:00,162.0,18.23,163.0,21.38,12.25,47.59359,-54.27349
2022-01-15 03:24:01+00:00,163.0,16.57,164.0,18.53,12.25,47.59359,-54.27349
2022-01-15 03:34:01+00:00,160.0,18.34,146.0,23.1,12.25,47.59359,-54.27349
2022-01-15 03:44:01+00:00,162.0,18.02,165.0,21.46,12.25,47.59359,-54.27349
2022-01-15 03:54:01+00:00,160.0,16.94,161.0,19.64,12.25,47.59359,-54.27349
2022-01-15 04:04:01+00:00,163.0,17.48,165.0,20.23,12.25,47.59359,-54.27349
2022-01-15 04:14:01+00:00,161.0,17.6,163.0,20.93,12.25,47.59359,-54.27349
2022-01-15 04:24:01+00:00,162.0,16.11,163.0,22.77,12.25,47.59359,-54.27349
2022-01-15 04:34:01+00:00,161.0,17.83,160.0,20.52,12.25,47.59359,-54.27349
2022-01-15 04:44:01+00:00,161.0,16.35,150.0,19.19,12.25,47.59359,-54.27349
2022-01-15 04:54:01+00:00,157.0,16.53,149.0,22.71,12.25,47.59359,-54.27349
2022-01-15 05:04:01+00:00,158.0,16.63,149.0,23.97,12.25,47.59359,-54.27349
2022-01-15 05:14:00+00:00,160.0,17.83,161.0,20.63,12.25,47.59359,-54.27349
2022-01-15 05:24:00+00:00,161.0,17.18,166.0,21.87,12.25,47.59359,-54.27349
2022-01-15 05:34:00+00:00,158.0,17.84,148.0,21.74,12.25,47.59359,-54.27349
2022-01-15 05:44:00+00:00,159.0,16.37,149.0,19.62,12.25,47.59359,-54.27349
2022-01-15 05:54:00+00:00,162.0,16.48,166.0,20.12,12.25,47.59359,-54.27349
2022-01-15 06:04:00+00:00,160.0,17.08,144.0,22.73,12.25,47.59359,-54.27349
2022-01-15 06:14:00+00:00,160.0,16.18,160.0,19.61,12.25,47.59359,-54.27349
2022-01-15 06:24:00+00:00,159.0,13.01,154.0,15.94,12.25,47.59359,-54.27349
2022-01-15 06:34:00+00:00,158.0,16.35,145.0,22.86,12.25,47.59359,-54.27349
2022-01-15 06:44:00+00:00,158.0,15.99,161.0,19.25,12.25,47.59359,-54.27349
2022-01-15 06:54:00+00:00,153.0,15.59,141.0,19.36,12.25,47.59359,-54.27349
2022-01-15 07:04:00+00:00,160.0,17.59,159.0,20.28,12.25,47.59359,-54.27349
2022-01-15 07:14:00+00:00,163.0,15.67,161.0,18.91,12.17,47.59359,-54.27349
2022-01-15 07:24:00+00:00,165.0,18.15,167.0,22.6,12.17,47.59359,-54.27349
2022-01-15 07:34:00+00:00,163.0,20.67,171.0,24.74,12.17,47.59359,-54.27349
2022-01-15 07:44:00+00:00,165.0,21.96,168.0,26.67,12.17,47.59359,-54.27349
2022-01-15 07:54:00+00:00,166.0,22.14,169.0,26.6,12.17,47.59359,-54.27349
2022-01-15 08:04:00+00:00,167.0,23.05,171.0,28.61,12.17,47.59359,-54.27349
2022-01-15 08:14:00+00:00,167.0,24.56,165.0,29.55,12.17,47.59359,-54.27349
2022-01-15 08:24:00+00:00,165.0,23.71,169.0,27.99,12.17,47.59359,-54.27349
2022-01-15 08:34:00+00:00,167.0,20.02,163.0,23.8,12.17,47.59359,-54.27349
2022-01-15 08:44:00+00:00,167.0,22.39,168.0,28.03,12.17,47.59359,-54.27349
2022-01-15 08:54:00+00:00,165.0,20.67,169.0,25.75,12.17,47.59359,-54.27349
2022-01-15 09:04:00+00:00,165.0,20.41,169.0,26.38,12.17,47.59359,-54.27349
2022-01-15 09:14:01+00:00,166.0,23.62,170.0,29.8,12.17,47.59359,-54.27349
2022-01-15 09:24:01+00:00,168.0,21.58,170.0,27.67,12.17,47.59359,-54.27349
2022-01-15 09:34:01+00:00,162.0,21.53,152.0,27.73,12.17,47.59359,-54.27349
2022-01-15 09:44:01+00:00,165.0,24.34,154.0,28.82,12.17,47.59359,-54.27349
2022-01-15 09:54:01+00:00,166.0,19.91,171.0,24.71,12.17,47.59359,-54.27349
2022-01-15 10:04:01+00:00,165.0,20.48,166.0,24.89,12.17,47.59359,-54.27349
2022-01-15 10:14:01+00:00,165.0,21.93,170.0,25.89,12.25,47.59359,-54.27349
2022-01-15 10:24:01+00:00,166.0,23.12,168.0,27.91,12.25,47.59359,-54.27349
2022-01-15 10:34:01+00:00,167.0,22.98,167.0,29.88,12.25,47.59359,-54.27349
2022-01-15 10:44:01+00:00,166.0,19.66,166.0,24.61,12.25,47.59359,-54.27349
2022-01-15 10:54:01+00:00,169.0,22.91,169.0,28.83,12.25,47.59359,-54.27349
2022-01-15 11:04:01+00:00,169.0,25.84,171.0,29.71,12.25,47.59359,-54.27349
2022-01-15 11:14:00+00:00,168.0,23.92,169.0,29.17,12.25,47.59359,-54.27349
2022-01-15 11:24:00+00:00,171.0,22.2,173.0,30.2,12.25,47.59359,-54.27349
2022-01-15 11:34:00+00:00,172.0,22.26,175.0,28.94,12.25,47.59359,-54.27349
2022-01-15 11:44:00+00:00,169.0,23.86,170.0,30.84,12.25,47.59359,-54.27349
2022-01-15 11:54:00+00:00,172.0,22.17,172.0,29.34,12.25,47.59359,-54.27349
2022-01-15 12:04:00+00:00,172.0,21.61,172.0,26.67,12.25,47.59359,-54.27349
2022-01-15 12:14:00+00:00,169.0,18.04,169.0,22.03,12.25,47.59359,-54.27349
2022-01-15 12:24:00+00:00,175.0,22.06,179.0,26.26,12.25,47.59359,-54.27349
2022-01-15 12:34:00+00:00,172.0,22.88,184.0,29.68,12.25,47.59359,-54.27349
2022-01-15 12:44:00+00:00,170.0,22.43,170.0,28.35,12.25,47.59359,-54.27349
2022-01-15 12:54:00+00:00,169.0,21.6,175.0,26.47,12.25,47.59359,-54.27349
2022-01-15 13:04:00+00:00,172.0,20.49,170.0,25.02,12.25,47.59359,-54.27349
2022-01-15 13:14:00+00:00,171.0,22.12,168.0,25.6,12.25,47.59359,-54.27349
2022-01-15 13:24:00+00:00,173.0,22.11,170.0,26.49,12.25,47.59359,-54.27349
2022-01-15 13:34:00+00:00,170.0,21.12,171.0,25.15,12.25,47.59359,-54.27349
2022-01-15 13:44:00+00:00,168.0,18.65,172.0,23.74,12.25,47.59359,-54.27349
2022-01-15 13:54:00+00:00,169.0,21.62,169.0,26.89,12.25,47.59359,-54.27349
2022-01-15 14:04:00+00:00,168.0,20.16,171.0,23.76,12.25,47.59359,-54.27349
2022-01-15 14:14:01+00:00,163.0,18.67,158.0,23.65,12.33,47.59359,-54.27349
2022-01-15 14:24:01+00:00,166.0,21.9,165.0,25.03,12.33,47.59359,-54.27349
2022-01-15 14:34:01+00:00,167.0,18.99,163.0,23.23,12.33,47.59359,-54.27349
2022-01-15 14:44:01+00:00,168.0,21.94,165.0,28.01,12.33,47.59359,-54.27349
2022-01-15 14:54:01+00:00,164.0,22.08,164.0,27.95,12.33,47.59359,-54.27349
2022-01-15 15:04:01+00:00,165.0,22.23,167.0,27.44,12.33,47.59359,-54.27349
2022-01-15 15:14:01+00:00,167.0,19.66,168.0,27.2,12.41,47.59359,-54.27349
2022-01-15 15:24:01+00:00,166.0,20.37,156.0,26.88,12.41,47.59359,-54.27349
2022-01-15 15:34:01+00:00,166.0,18.38,165.0,23.69,12.41,47.59359,-54.27349
2022-01-15 15:44:01+00:00,168.0,18.9,169.0,22.39,12.41,47.59359,-54.27349
2022-01-15 15:54:01+00:00,166.0,21.04,159.0,24.38,12.41,47.59359,-54.27349
2022-01-15 16:04:01+00:00,168.0,20.34,167.0,24.82,12.41,47.59359,-54.27349
2022-01-15 16:14:01+00:00,163.0,21.67,159.0,29.01,12.33,47.59359,-54.27349
2022-01-15 16:24:01+00:00,163.0,23.36,157.0,28.36,12.33,47.59359,-54.27349
2022-01-15 16:34:01+00:00,165.0,21.11,169.0,25.19,12.33,47.59359,-54.27349
2022-01-15 16:44:01+00:00,165.0,21.05,160.0,25.44,12.33,47.59359,-54.27349
2022-01-15 16:54:01+00:00,169.0,19.7,172.0,23.74,12.33,47.59359,-54.27349
2022-01-15 17:04:01+00:00,167.0,17.0,165.0,20.6,12.33,47.59359,-54.27349
2022-01-15 17:14:00+00:00,167.0,14.81,171.0,18.82,12.33,47.59359,-54.27349
2022-01-15 17:24:00+00:00,165.0,14.41,170.0,16.93,12.33,47.59359,-54.27349
2022-01-15 17:34:00+00:00,164.0,17.58,168.0,21.27,12.33,47.59359,-54.27349
2022-01-15 17:44:00+00:00,168.0,20.01,170.0,23.68,12.33,47.59359,-54.27349
2022-01-15 17:54:00+00:00,161.0,22.21,164.0,27.54,12.33,47.59359,-54.27349
2022-01-15 18:04:00+00:00,168.0,20.57,170.0,24.52,12.33,47.59359,-54.27349
2022-01-15 18:14:00+00:00,170.0,18.9,168.0,23.92,12.41,47.59359,-54.27349
2022-01-15 18:24:00+00:00,169.0,18.98,173.0,21.86,12.41,47.59359,-54.27349
2022-01-15 18:34:00+00:00,174.0,17.64,171.0,21.9,12.41,47.59359,-54.27349
2022-01-15 18:44:00+00:00,172.0,16.24,175.0,20.18,12.41,47.59359,-54.27349
2022-01-15 18:54:00+00:00,169.0,16.75,168.0,18.89,12.41,47.59359,-54.27349
2022-01-15 19:04:00+00:00,170.0,16.33,170.0,19.01,12.41,47.59359,-54.27349
2022-01-15 19:14:00+00:00,170.0,17.41,171.0,20.62,12.33,47.59359,-54.27349
2022-01-15 19:24:00+00:00,173.0,17.2,167.0,24.23,12.33,47.59359,-54.27349
2022-01-15 19:34:00+00:00,172.0,17.41,168.0,21.42,12.33,47.59359,-54.27349
2022-01-15 19:44:00+00:00,170.0,17.2,170.0,19.73,12.33,47.59359,-54.27349
2022-01-15 19:54:00+00:00,169.0,17.39,170.0,20.82,12.33,47.59359,-54.27349
2022-01-15 20:04:00+00:00,170.0,16.28,175.0,19.28,12.33,47.59359,-54.27349
2022-01-15 20:14:00+00:00,172.0,16.84,177.0,20.14,12.25,47.59359,-54.27349
2022-01-15 20:24:00+00:00,171.0,15.82,169.0,18.15,12.25,47.59359,-54.27349
2022-01-15 20:34:00+00:00,174.0,16.55,174.0,19.36,12.25,47.59359,-54.27349
2022-01-15 20:44:00+00:00,175.0,16.45,177.0,20.97,12.25,47.59359,-54.27349
2022-01-15 20:54:00+00:00,183.0,16.51,185.0,19.42,12.25,47.59359,-54.27349
2022-01-15 21:04:00+00:00,190.0,15.92,191.0,20.7,12.25,47.59359,-54.27349
2022-01-15 21:14:00+00:00,191.0,17.59,197.0,23.19,12.25,47.59359,-54.27349
2022-01-15 21:24:00+00:00,192.0,15.27,185.0,17.45,12.25,47.59359,-54.27349
2022-01-15 21:34:00+00:00,194.0,17.63,207.0,22.38,12.25,47.59359,-54.27349
2022-01-15 21:44:00+00:00,190.0,16.58,198.0,21.45,12.25,47.59359,-54.27349
2022-01-15 21:54:00+00:00,191.0,16.7,186.0,19.3,12.25,47.59359,-54.27349
2022-01-15 22:04:00+00:00,192.0,14.68,188.0,17.47,12.25,47.59359,-54.27349
2022-01-15 22:14:00+00:00,191.0,15.65,191.0,18.66,12.25,47.59359,-54.27349
2022-01-15 22:24:00+00:00,190.0,16.66,190.0,19.43,12.25,47.59359,-54.27349
2022-01-15 22:34:00+00:00,188.0,16.42,184.0,18.73,12.25,47.59359,-54.27349
2022-01-15 22:44:00+00:00,195.0,18.33,198.0,23.21,12.25,47.59359,-54.27349
2022-01-15 22:54:00+00:00,203.0,16.79,204.0,19.85,12.25,47.59359,-54.27349
2022-01-15 23:04:00+00:00,206.0,18.38,207.0,20.97,12.25,47.59359,-54.27349
2022-01-15 23:14:00+00:00,216.0,14.66,233.0,20.83,12.25,47.59359,-54.27349
2022-01-15 23:24:00+00:00,232.0,17.56,237.0,21.36,12.25,47.59359,-54.27349
2022-01-15 23:34:00+00:00,235.0,19.45,240.0,22.97,12.25,47.59359,-54.27349
2022-01-15 23:44:00+00:00,235.0,20.17,238.0,25.23,12.25,47.59359,-54.27349
2022-01-15 23:54:00+00:00,239.0,22.0,239.0,24.61,12.25,47.59359,-54.27349
